Regional Weather Roundup
Issued by NWS Spokane, WA

Home | Current Version | Previous Version | Text Only | Print | Product List | Glossary On
Versions: 1 2 3 4 5 6 7 8 9 10 11 12 13 14 15 16 17 18 19 20 21 22 23 24 25 26 27 28 29 30 31 32 33 34 35 36 37 38 39 40 41 42 43 44 45 46 47 48 49 50
000
NZUS01 KOTX 292210
RWROTX
EASTERN WASHINGTON/NORTHERN IDAHO ROUNDUP
NATIONAL WEATHER SERVICE, SPOKANE WA
300 PM PDT SUN MAR 29 2015

Note: "fair" indicated few or no clouds below 12,000 feet with no
significant weather and/or obstructions to visibility.

...NORTHEAST WASHINGTON AND NORTHERN IDAHO PANHANDLE...

CITY           SKY/WX    TMP DP  RH WIND       PRES   REMARKS
SPOKANE INTL   PTSUNNY   59  38  45 SW16      30.17F
SPOKANE DOWNTO PTSUNNY   61  39  44 SW12G18   30.17F
COEUR D ALENE  PTSUNNY   59  39  47 SW10      30.17F
DEER PARK      CLOUDY    58  39  49 S13G21    30.17F
SANDPOINT      CLOUDY    55  37  50 SW5       30.16F
BONNERS FERRY  CLOUDY    55  37  50 S7        30.14F

...SOUTHEAST WASHINGTON AND SOUTHERN IDAHO PANHANDLE...

CITY           SKY/WX    TMP DP  RH WIND       PRES   REMARKS
WALLA WALLA    MOSUNNY   66  39  37 W7        30.17F
PULLMAN/MOSCOW MOSUNNY   60  39  45 W10       30.21F
LEWISTON       MOSUNNY   65  37  35 VRB3      30.18F
LOWELL           N/A     62  40  44 CALM      30.19F

...COLUMBIA BASIN...

CITY           SKY/WX    TMP DP  RH WIND       PRES   REMARKS
EPHRATA        PTSUNNY   63  38  39 SW8       30.14F
MOSES LAKE     PTSUNNY   65  39  38 SW8       30.16F
TRI CITIES     MOSUNNY   71  26  18 SW10      30.16F
HERMISTON      MOSUNNY   69  38  32 MISG      30.15F
PENDLETON      PTSUNNY   64  42  44 NW5       30.16F

...EAST SLOPES CASCADES...

CITY           SKY/WX    TMP DP  RH WIND       PRES   REMARKS
THE DALLES     SUNNY     71  36  27 NW12      30.16F
YAKIMA         MOSUNNY   68  39  34 CALM      30.15F
ELLENSBURG     PTSUNNY   65  38  36 NW9       30.15F
WENATCHEE      CLOUDY    63  35  35 E5        30.12F
OMAK           PTSUNNY   63  39  41 S15       30.10F

...SOUTHERN BRITISH COLUMBIA...

CITY           SKY/WX    TMP DP  RH WIND       PRES   REMARKS
PENTICTON      PTSUNNY   57  39  51 S20       30.07F
CRANBROOK      PTSUNNY   52  34  50 S22G29    30.08F

...WESTERN MONTANA...

CITY           SKY/WX    TMP DP  RH WIND       PRES   REMARKS
MISSOULA       PTSUNNY   54  31  41 W14       30.20F

...NEIGHBORING CITIES...

CITY           SKY/WX    TMP DP  RH WIND       PRES   REMARKS
SEATTLE        CLOUDY    59  43  55 SW8       30.22F
CALGARY        CLOUDY    59  23  25 W20G39    29.80F



USA.gov is the U.S. government's official web portal to all federal, state and local government web resources and services.